Location: Newark
(13.8117°N, 3.6025°W)
Time: 00:31:14
(UTC+00:00)

Explorer 11/Cluster Stage 4 - Pass Details

Date: 02 September 2019
Orbit: 467 x 1260 km, 28.8° (Epoch: 17 September)

Event Time Altitude Azimuth Distance (km) Brightness Sun altitude
Rises 02:19:46 0° 203° (SSW) 2,508 - -52.0°
Reaches altitude 10° 02:22:56 10° 172° (S) 1,700 - -51.3°
Maximum altitude 02:24:41 13° 145° (SE) 1,590 - -51.0°
Drops below altitude 10° 02:26:32 10° 118° (ESE) 1,820 - -50.6°
Sets 02:30:12 0° 89° (E) 2,879 - -49.8°
